RYR7WK EGHH-LEPA

Flight info

Callsign RYR7WK
Flight time 1h 59m
Altitude 35000
Route SAM Y8 GWC UN859 SOPIL DCT BALAN DCT EVPOK DCT NARAK DCT GAI DCT LOMRA DCT ROCAN DCT IBRAP N13 LORES
Aircraft B38M/M-SDE1FGHILORVWXY/HB1

Departure

Time 2026-05-05 20:54
Airport Bournemouth Airport (EGHH)

Arrival

Time 2026-05-05 22:53
Airport Palma de Mallorca Airport (LEPA)
Time Latitude Longitude Altitude Speed Heading
2026-05-05 20:30 50.77763 -1.83383 45 ft 0 kts 118°
2026-05-05 20:46 50.77765 -1.83390 45 ft 3 kts 118°
2026-05-05 20:46 50.77778 -1.83427 45 ft 4 kts 121°
2026-05-05 20:46 50.77794 -1.83459 45 ft 4 kts 145°
2026-05-05 20:46 50.77808 -1.83468 45 ft 0 kts 177°
2026-05-05 20:50 50.77799 -1.83467 45 ft 5 kts 177°
2026-05-05 20:50 50.77734 -1.83464 45 ft 13 kts 186°
2026-05-05 20:50 50.77623 -1.83487 45 ft 15 kts 197°
2026-05-05 20:50 50.77576 -1.83590 45 ft 13 kts 264°
2026-05-05 20:51 50.77578 -1.83759 46 ft 17 kts 274°
2026-05-05 20:51 50.77600 -1.83968 46 ft 21 kts 281°
2026-05-05 20:51 50.77641 -1.84213 44 ft 25 kts 287°
2026-05-05 20:51 50.77694 -1.84483 48 ft 26 kts 283°
2026-05-05 20:52 50.77726 -1.84738 48 ft 19 kts 285°
2026-05-05 20:52 50.77788 -1.84939 49 ft 22 kts 299°
2026-05-05 20:52 50.77851 -1.85135 51 ft 19 kts 276°
2026-05-05 20:52 50.77838 -1.85296 48 ft 2 kts 179°
2026-05-05 20:53 50.77834 -1.85286 51 ft 1 kts 107°
2026-05-05 20:53 50.77839 -1.85254 51 ft 7 kts 73°
2026-05-05 20:53 50.77885 -1.84985 48 ft 62 kts 75°
2026-05-05 20:53 50.78066 -1.83897 45 ft 140 kts 75°
2026-05-05 20:54 50.78350 -1.82107 299 ft 180 kts 75°
2026-05-05 20:54 50.78688 -1.80202 1324 ft 178 kts 67°
2026-05-05 20:54 50.79307 -1.78513 2159 ft 185 kts 55°
2026-05-05 20:54 50.80036 -1.76754 2829 ft 195 kts 56°
2026-05-05 20:55 50.80801 -1.74919 3570 ft 204 kts 55°
2026-05-05 20:55 50.81598 -1.73044 4470 ft 207 kts 54°
2026-05-05 20:55 50.82386 -1.71059 5227 ft 218 kts 57°
2026-05-05 20:55 50.83188 -1.68900 5852 ft 235 kts 58°
2026-05-05 20:56 50.84024 -1.66594 6596 ft 248 kts 59°
2026-05-05 20:56 50.84899 -1.64150 7307 ft 261 kts 59°
2026-05-05 20:56 50.85790 -1.61607 8070 ft 268 kts 59°
2026-05-05 20:56 50.86722 -1.58996 8903 ft 275 kts 59°
2026-05-05 20:57 50.87677 -1.56336 9763 ft 280 kts 59°
2026-05-05 20:57 50.88634 -1.53598 10475 ft 292 kts 65°
2026-05-05 20:57 50.88974 -1.50352 10969 ft 311 kts 95°
2026-05-05 20:57 50.88249 -1.47073 11577 ft 324 kts 121°
2026-05-05 20:58 50.86829 -1.44230 12250 ft 333 kts 130°
2026-05-05 20:58 50.85336 -1.41416 13081 ft 336 kts 129°
2026-05-05 20:58 50.83836 -1.38556 13872 ft 340 kts 129°
2026-05-05 20:58 50.82321 -1.35649 14661 ft 344 kts 129°
2026-05-05 20:59 50.80791 -1.32710 15442 ft 347 kts 129°
2026-05-05 20:59 50.79267 -1.29780 16172 ft 351 kts 129°
2026-05-05 20:59 50.77690 -1.26749 16904 ft 355 kts 129°
2026-05-05 20:59 50.76135 -1.23764 17593 ft 358 kts 129°
2026-05-05 21:00 50.74543 -1.20712 18270 ft 361 kts 129°
2026-05-05 21:00 50.72935 -1.17634 18917 ft 365 kts 129°
2026-05-05 21:00 50.71311 -1.14529 19534 ft 369 kts 129°
2026-05-05 21:00 50.69673 -1.11398 20130 ft 372 kts 129°
2026-05-05 21:01 50.68017 -1.08239 20720 ft 375 kts 129°
2026-05-05 21:01 50.66347 -1.05059 21274 ft 379 kts 129°
2026-05-05 21:01 50.64657 -1.01843 21826 ft 382 kts 129°
2026-05-05 21:01 50.62957 -0.98613 22361 ft 385 kts 129°
2026-05-05 21:02 50.61241 -0.95355 22897 ft 388 kts 129°
2026-05-05 21:02 50.59507 -0.92070 23410 ft 391 kts 129°
2026-05-05 21:02 50.57761 -0.88764 23892 ft 394 kts 129°
2026-05-05 21:02 50.56003 -0.85440 24372 ft 397 kts 129°
2026-05-05 21:03 50.54229 -0.82089 24849 ft 400 kts 130°
2026-05-05 21:03 50.52443 -0.78722 25339 ft 401 kts 130°
2026-05-05 21:03 50.50651 -0.75350 25801 ft 404 kts 130°
2026-05-05 21:03 50.48847 -0.71955 26227 ft 406 kts 130°
2026-05-05 21:04 50.47029 -0.68543 26673 ft 408 kts 130°
2026-05-05 21:04 50.45203 -0.65119 27104 ft 409 kts 130°
2026-05-05 21:04 50.43372 -0.61689 27522 ft 411 kts 130°
2026-05-05 21:04 50.41530 -0.58244 27939 ft 413 kts 130°
2026-05-05 21:05 50.39683 -0.54795 28328 ft 415 kts 131°
2026-05-05 21:05 50.37825 -0.51330 28716 ft 416 kts 131°
2026-05-05 21:05 50.35959 -0.47856 29085 ft 418 kts 131°
2026-05-05 21:05 50.34082 -0.44364 29442 ft 420 kts 131°
2026-05-05 21:06 50.32198 -0.40866 29805 ft 421 kts 131°
2026-05-05 21:06 50.30305 -0.37354 30113 ft 424 kts 131°
2026-05-05 21:06 50.28412 -0.33849 30350 ft 428 kts 131°
2026-05-05 21:06 50.26484 -0.30283 30683 ft 429 kts 131°
2026-05-05 21:07 50.24555 -0.26722 30995 ft 431 kts 131°
2026-05-05 21:07 50.22606 -0.23126 31294 ft 433 kts 131°
2026-05-05 21:07 50.20655 -0.19533 31600 ft 435 kts 131°
2026-05-05 21:07 50.18693 -0.15926 31899 ft 437 kts 131°
2026-05-05 21:08 50.16719 -0.12301 32202 ft 438 kts 131°
2026-05-05 21:08 50.15410 -0.09898 32418 ft 439 kts 131°
2026-05-05 21:08 50.13407 -0.06230 32803 ft 438 kts 131°
2026-05-05 21:08 50.11358 -0.02740 33188 ft 436 kts 140°
2026-05-05 21:09 50.08843 -0.00190 33595 ft 431 kts 157°
2026-05-05 21:09 50.06019 0.01301 33950 ft 429 kts 164°
2026-05-05 21:09 50.03190 0.02552 34373 ft 426 kts 164°
2026-05-05 21:09 50.00331 0.03752 34744 ft 425 kts 164°
2026-05-05 21:10 49.97421 0.04938 34895 ft 428 kts 165°
2026-05-05 21:10 49.94570 0.06075 34934 ft 429 kts 165°
2026-05-05 21:10 49.88794 0.08349 34922 ft 428 kts 165°
2026-05-05 21:11 49.83018 0.10610 34918 ft 428 kts 165°
2026-05-05 21:11 49.77242 0.12865 34915 ft 428 kts 165°
2026-05-05 21:12 49.71468 0.15114 34916 ft 428 kts 165°
2026-05-05 21:12 49.65705 0.17413 34917 ft 428 kts 164°
2026-05-05 21:13 49.59940 0.19736 34916 ft 428 kts 165°
2026-05-05 21:13 49.54180 0.22049 34915 ft 428 kts 164°
2026-05-05 21:14 49.48416 0.24358 34909 ft 428 kts 165°
2026-05-05 21:14 49.42652 0.26663 34906 ft 428 kts 165°
2026-05-05 21:15 49.36890 0.28958 34907 ft 427 kts 164°
2026-05-05 21:15 49.31139 0.31266 34906 ft 427 kts 163°
2026-05-05 21:16 49.25404 0.33697 34906 ft 428 kts 163°
2026-05-05 21:16 49.19675 0.36109 34906 ft 428 kts 164°
2026-05-05 21:17 49.13933 0.38518 34906 ft 427 kts 164°
2026-05-05 21:17 49.08187 0.40923 34906 ft 428 kts 164°
2026-05-05 21:18 49.02477 0.43308 34899 ft 428 kts 164°
2026-05-05 21:18 48.96736 0.45699 34897 ft 428 kts 164°
2026-05-05 21:19 48.90994 0.48086 34897 ft 428 kts 164°
2026-05-05 21:19 48.85210 0.50484 34898 ft 428 kts 164°
2026-05-05 21:20 48.79500 0.52839 34896 ft 428 kts 165°
2026-05-05 21:20 48.73729 0.55101 34898 ft 428 kts 165°
2026-05-05 21:21 48.67966 0.57367 34899 ft 428 kts 165°
2026-05-05 21:21 48.62193 0.59631 34898 ft 428 kts 165°
2026-05-05 21:22 48.56420 0.61890 34896 ft 428 kts 165°
2026-05-05 21:22 48.50657 0.64185 34897 ft 428 kts 164°
2026-05-05 21:23 48.44904 0.66526 34898 ft 428 kts 164°
2026-05-05 21:23 48.39139 0.68861 34896 ft 428 kts 164°
2026-05-05 21:24 48.33379 0.71190 34898 ft 429 kts 164°
2026-05-05 21:24 48.27618 0.73513 34897 ft 428 kts 164°
2026-05-05 21:25 48.21860 0.75793 34897 ft 429 kts 165°
2026-05-05 21:25 48.16086 0.78067 34898 ft 429 kts 165°
2026-05-05 21:26 48.10319 0.80335 34896 ft 428 kts 165°
2026-05-05 21:26 48.04587 0.82582 34898 ft 428 kts 165°
2026-05-05 21:27 47.98821 0.84839 34885 ft 428 kts 165°
2026-05-05 21:27 47.93057 0.87089 34878 ft 429 kts 165°
2026-05-05 21:28 47.87284 0.89338 34887 ft 429 kts 165°
2026-05-05 21:28 47.81497 0.91586 34888 ft 429 kts 165°
2026-05-05 21:29 47.75729 0.93820 34886 ft 429 kts 165°
2026-05-05 21:29 47.69952 0.96053 34888 ft 429 kts 165°
2026-05-05 21:30 47.64185 0.98277 34887 ft 429 kts 166°
2026-05-05 21:30 47.58402 1.00503 34887 ft 429 kts 166°
2026-05-05 21:31 47.52624 1.02720 34888 ft 429 kts 166°
2026-05-05 21:31 47.46848 1.04932 34888 ft 429 kts 166°
2026-05-05 21:32 47.40997 1.06331 34892 ft 427 kts 182°
2026-05-05 21:32 47.35036 1.06235 34885 ft 429 kts 180°
2026-05-05 21:33 47.29062 1.06116 34877 ft 429 kts 181°
2026-05-05 21:33 47.23093 1.05979 34887 ft 428 kts 181°
2026-05-05 21:34 47.17170 1.05840 34887 ft 428 kts 181°
2026-05-05 21:34 47.11218 1.05700 34888 ft 428 kts 181°
2026-05-05 21:35 47.05262 1.05562 34887 ft 428 kts 181°
2026-05-05 21:35 46.99310 1.05337 34888 ft 428 kts 182°
2026-05-05 21:36 46.93344 1.05081 34889 ft 428 kts 182°
2026-05-05 21:36 46.87405 1.04830 34887 ft 427 kts 182°
2026-05-05 21:37 46.81462 1.04581 34888 ft 427 kts 182°
2026-05-05 21:37 46.75518 1.04331 34888 ft 427 kts 182°
2026-05-05 21:38 46.69577 1.04083 34888 ft 427 kts 182°
2026-05-05 21:38 46.63680 1.03837 34888 ft 426 kts 182°
2026-05-05 21:39 46.57746 1.03589 34888 ft 426 kts 182°
2026-05-05 21:39 46.51819 1.03442 34886 ft 426 kts 174°
2026-05-05 21:40 46.46011 1.05250 34896 ft 428 kts 168°
2026-05-05 21:40 46.40204 1.07157 34898 ft 428 kts 168°
2026-05-05 21:41 46.34407 1.09088 34897 ft 427 kts 168°
2026-05-05 21:41 46.28605 1.11020 34902 ft 427 kts 168°
2026-05-05 21:42 46.22802 1.12948 34906 ft 428 kts 168°
2026-05-05 21:42 46.17007 1.14869 34907 ft 428 kts 168°
2026-05-05 21:43 46.11242 1.16777 34904 ft 427 kts 168°
2026-05-05 21:43 46.05414 1.18701 34906 ft 427 kts 168°
2026-05-05 21:44 45.99624 1.20609 34905 ft 427 kts 168°
2026-05-05 21:44 45.93871 1.22499 34905 ft 426 kts 169°
2026-05-05 21:45 45.88098 1.24393 34911 ft 426 kts 169°
2026-05-05 21:45 45.82319 1.26285 34914 ft 426 kts 169°
2026-05-05 21:46 45.76533 1.28175 34917 ft 426 kts 169°
2026-05-05 21:46 45.70754 1.30058 34916 ft 426 kts 169°
2026-05-05 21:47 45.64983 1.31936 34915 ft 425 kts 169°
2026-05-05 21:47 45.59211 1.33810 34914 ft 425 kts 169°
2026-05-05 21:48 45.53437 1.35680 34916 ft 425 kts 169°
2026-05-05 21:48 45.47664 1.37546 34923 ft 425 kts 169°
2026-05-05 21:49 45.41897 1.39405 34926 ft 425 kts 169°
2026-05-05 21:49 45.36134 1.41259 34926 ft 425 kts 169°
2026-05-05 21:50 45.30374 1.43109 34926 ft 424 kts 170°
2026-05-05 21:50 45.24613 1.44956 34921 ft 424 kts 170°
2026-05-05 21:51 45.18858 1.46797 34933 ft 424 kts 170°
2026-05-05 21:51 45.14076 1.48324 34937 ft 423 kts 170°
2026-05-05 21:52 45.05447 1.51072 34943 ft 423 kts 170°
2026-05-05 21:53 44.99709 1.52894 34943 ft 423 kts 170°
2026-05-05 21:53 44.93974 1.54712 34941 ft 422 kts 170°
2026-05-05 21:54 44.88239 1.56526 34942 ft 422 kts 171°
2026-05-05 21:54 44.82517 1.58332 34955 ft 421 kts 171°
2026-05-05 21:55 44.76806 1.60132 34950 ft 420 kts 171°
2026-05-05 21:55 44.71098 1.61927 34949 ft 420 kts 171°
2026-05-05 21:56 44.65437 1.63703 34954 ft 419 kts 171°
2026-05-05 21:56 44.59716 1.65495 34956 ft 418 kts 171°
2026-05-05 21:57 44.54073 1.67258 34955 ft 418 kts 171°
2026-05-05 21:57 44.48399 1.69028 34954 ft 417 kts 172°
2026-05-05 21:58 44.42733 1.70791 34959 ft 417 kts 172°
2026-05-05 21:58 44.37079 1.72549 34963 ft 416 kts 172°
2026-05-05 21:59 44.31426 1.74302 34981 ft 416 kts 172°
2026-05-05 21:59 44.25747 1.75644 34981 ft 413 kts 175°
2026-05-05 22:00 44.20078 1.76900 34984 ft 413 kts 175°
2026-05-05 22:00 44.14409 1.78171 34982 ft 412 kts 175°
2026-05-05 22:01 44.08736 1.79443 34989 ft 412 kts 175°
2026-05-05 22:01 44.03080 1.80709 34983 ft 412 kts 175°
2026-05-05 22:02 43.97420 1.81972 35001 ft 412 kts 175°
2026-05-05 22:02 43.91753 1.82658 34989 ft 408 kts 180°
2026-05-05 22:03 43.86078 1.83187 35006 ft 409 kts 180°
2026-05-05 22:03 43.80401 1.83750 35006 ft 409 kts 180°
2026-05-05 22:04 43.74719 1.84317 35005 ft 409 kts 180°
2026-05-05 22:04 43.69079 1.84878 34995 ft 409 kts 180°
2026-05-05 22:05 43.63375 1.85446 34997 ft 408 kts 180°
2026-05-05 22:05 43.57701 1.86009 35002 ft 409 kts 180°
2026-05-05 22:06 43.52060 1.86568 34990 ft 409 kts 180°
2026-05-05 22:06 43.46394 1.87129 34986 ft 408 kts 180°
2026-05-05 22:07 43.40717 1.87689 34987 ft 409 kts 181°
2026-05-05 22:07 43.35050 1.88245 34999 ft 408 kts 181°
2026-05-05 22:08 43.29378 1.88788 34986 ft 408 kts 181°
2026-05-05 22:08 43.23720 1.89329 35002 ft 408 kts 181°
2026-05-05 22:09 43.18058 1.89870 34988 ft 408 kts 181°
2026-05-05 22:09 43.12397 1.90409 34987 ft 407 kts 181°
2026-05-05 22:10 43.06754 1.90945 34986 ft 406 kts 181°
2026-05-05 22:10 43.01121 1.91479 34988 ft 406 kts 182°
2026-05-05 22:11 42.95480 1.92014 35003 ft 405 kts 182°
2026-05-05 22:11 42.89850 1.92547 34978 ft 405 kts 182°
2026-05-05 22:12 42.84228 1.93078 34982 ft 405 kts 182°
2026-05-05 22:12 42.78623 1.93606 34983 ft 403 kts 182°
2026-05-05 22:13 42.73019 1.94133 34985 ft 404 kts 182°
2026-05-05 22:13 42.67418 1.94718 34960 ft 407 kts 177°
2026-05-05 22:14 42.61915 1.96641 34960 ft 412 kts 173°
2026-05-05 22:14 42.56334 1.98631 34967 ft 412 kts 173°
2026-05-05 22:15 42.50802 2.00619 34974 ft 411 kts 173°
2026-05-05 22:15 42.45298 2.02593 34973 ft 408 kts 174°
2026-05-05 22:16 42.39849 2.04545 34979 ft 407 kts 174°
2026-05-05 22:16 42.34353 2.06505 34964 ft 408 kts 174°
2026-05-05 22:17 42.28866 2.08456 34959 ft 408 kts 174°
2026-05-05 22:17 42.23370 2.10406 34954 ft 409 kts 174°
2026-05-05 22:18 42.17871 2.12355 34957 ft 409 kts 174°
2026-05-05 22:18 42.12383 2.14296 34953 ft 408 kts 174°
2026-05-05 22:19 42.06887 2.16235 34950 ft 408 kts 174°
2026-05-05 22:19 42.01393 2.18171 34946 ft 408 kts 174°
2026-05-05 22:20 41.95900 2.20104 34952 ft 408 kts 174°
2026-05-05 22:20 41.90391 2.22038 34951 ft 408 kts 174°
2026-05-05 22:21 41.84905 2.23961 34951 ft 408 kts 174°
2026-05-05 22:21 41.79411 2.25883 34957 ft 408 kts 174°
2026-05-05 22:22 41.73919 2.27803 34956 ft 408 kts 174°
2026-05-05 22:22 41.68428 2.29720 34963 ft 408 kts 174°
2026-05-05 22:23 41.62944 2.31630 34961 ft 407 kts 174°
2026-05-05 22:23 41.57522 2.33520 34781 ft 394 kts 175°
2026-05-05 22:23 41.54883 2.34435 34430 ft 386 kts 175°
2026-05-05 22:24 41.52334 2.35322 34325 ft 373 kts 175°
2026-05-05 22:24 41.49840 2.36185 33982 ft 367 kts 175°
2026-05-05 22:24 41.47400 2.37030 33484 ft 366 kts 175°
2026-05-05 22:24 41.44936 2.37882 32977 ft 365 kts 176°
2026-05-05 22:25 41.42485 2.38730 32517 ft 363 kts 176°
2026-05-05 22:25 41.40049 2.39572 32071 ft 360 kts 176°
2026-05-05 22:25 41.37633 2.40407 31634 ft 358 kts 176°
2026-05-05 22:25 41.35234 2.41235 31206 ft 355 kts 176°
2026-05-05 22:26 41.32851 2.42057 30785 ft 352 kts 176°
2026-05-05 22:26 41.30484 2.42874 30366 ft 350 kts 176°
2026-05-05 22:26 41.28136 2.43683 29948 ft 348 kts 176°
2026-05-05 22:26 41.25802 2.44486 29543 ft 345 kts 176°
2026-05-05 22:27 41.23483 2.45284 29150 ft 343 kts 176°
2026-05-05 22:27 41.21186 2.46073 28754 ft 340 kts 176°
2026-05-05 22:27 41.18901 2.46858 28368 ft 338 kts 176°
2026-05-05 22:27 41.16632 2.47637 27986 ft 336 kts 176°
2026-05-05 22:28 41.14376 2.48410 27616 ft 333 kts 176°
2026-05-05 22:28 41.12143 2.49175 27250 ft 330 kts 175°
2026-05-05 22:28 41.09926 2.49935 26891 ft 328 kts 175°
2026-05-05 22:28 41.07728 2.50687 26530 ft 325 kts 175°
2026-05-05 22:29 41.05543 2.51434 26179 ft 323 kts 175°
2026-05-05 22:29 41.03376 2.52175 25838 ft 321 kts 175°
2026-05-05 22:29 41.01197 2.52918 25473 ft 326 kts 175°
2026-05-05 22:29 40.99013 2.53663 25129 ft 330 kts 175°
2026-05-05 22:30 40.96762 2.54431 24769 ft 330 kts 174°
2026-05-05 22:30 40.94568 2.55179 24419 ft 329 kts 174°
2026-05-05 22:30 40.92323 2.55944 24061 ft 328 kts 174°
2026-05-05 22:30 40.90150 2.56684 23716 ft 327 kts 174°
2026-05-05 22:31 40.87951 2.57431 23366 ft 326 kts 174°
2026-05-05 22:31 40.85765 2.58175 23017 ft 323 kts 174°
2026-05-05 22:31 40.83595 2.58911 22675 ft 321 kts 174°
2026-05-05 22:31 40.81441 2.59642 22333 ft 318 kts 174°
2026-05-05 22:32 40.79313 2.60365 21997 ft 315 kts 174°
2026-05-05 22:32 40.77198 2.61082 21664 ft 312 kts 174°
2026-05-05 22:32 40.75103 2.61791 21333 ft 309 kts 174°
2026-05-05 22:32 40.73028 2.62493 21007 ft 306 kts 174°
2026-05-05 22:33 40.70975 2.63188 20684 ft 303 kts 174°
2026-05-05 22:33 40.68940 2.63876 20364 ft 300 kts 174°
2026-05-05 22:33 40.66926 2.64556 20048 ft 297 kts 174°
2026-05-05 22:33 40.64934 2.65229 19736 ft 294 kts 174°
2026-05-05 22:34 40.62958 2.65896 19426 ft 291 kts 174°
2026-05-05 22:34 40.60999 2.66556 19119 ft 289 kts 174°
2026-05-05 22:34 40.59047 2.67214 18807 ft 293 kts 174°
2026-05-05 22:34 40.57056 2.67885 18495 ft 297 kts 173°
2026-05-05 22:35 40.55056 2.68559 18180 ft 297 kts 173°
2026-05-05 22:35 40.53052 2.69234 17869 ft 296 kts 173°
2026-05-05 22:35 40.51071 2.69901 17561 ft 292 kts 173°
2026-05-05 22:35 40.49155 2.70867 17218 ft 300 kts 159°
2026-05-05 22:36 40.47948 2.71753 17021 ft 298 kts 159°
2026-05-05 22:36 40.46144 2.73061 16734 ft 295 kts 159°
2026-05-05 22:36 40.44359 2.74355 16429 ft 292 kts 159°
2026-05-05 22:36 40.42593 2.75635 16139 ft 289 kts 159°
2026-05-05 22:37 40.40836 2.76907 15845 ft 291 kts 159°
2026-05-05 22:37 40.39049 2.78201 15535 ft 296 kts 159°
2026-05-05 22:37 40.37241 2.79509 15231 ft 298 kts 159°
2026-05-05 22:37 40.35426 2.80823 14932 ft 297 kts 158°
2026-05-05 22:38 40.33624 2.82127 14633 ft 295 kts 158°
2026-05-05 22:38 40.31835 2.83418 14326 ft 292 kts 158°
2026-05-05 22:38 40.30068 2.84694 14029 ft 289 kts 158°
2026-05-05 22:38 40.28324 2.85953 13736 ft 286 kts 158°
2026-05-05 22:39 40.26587 2.87206 13444 ft 282 kts 158°
2026-05-05 22:39 40.24872 2.88441 13154 ft 281 kts 158°
2026-05-05 22:39 40.23153 2.89678 12863 ft 286 kts 158°
2026-05-05 22:39 40.21393 2.90946 12547 ft 291 kts 157°
2026-05-05 22:40 40.19617 2.92223 12220 ft 292 kts 157°
2026-05-05 22:40 40.17836 2.93503 11937 ft 291 kts 157°
2026-05-05 22:40 40.16089 2.94759 11650 ft 291 kts 157°
2026-05-05 22:40 40.14315 2.96033 11345 ft 291 kts 156°
2026-05-05 22:41 40.12544 2.97304 11054 ft 290 kts 156°
2026-05-05 22:41 40.10775 2.98572 10754 ft 289 kts 156°
2026-05-05 22:41 40.09025 2.99827 10457 ft 286 kts 156°
2026-05-05 22:41 40.07286 3.01072 10167 ft 283 kts 155°
2026-05-05 22:42 40.05565 3.02303 9927 ft 280 kts 156°
2026-05-05 22:42 40.03870 3.03517 9639 ft 277 kts 155°
2026-05-05 22:42 40.02186 3.04721 9353 ft 274 kts 155°
2026-05-05 22:42 40.00523 3.05910 9079 ft 271 kts 155°
2026-05-05 22:43 39.98871 3.07088 8796 ft 269 kts 155°
2026-05-05 22:43 39.97235 3.08255 8515 ft 267 kts 155°
2026-05-05 22:43 39.95620 3.09408 8235 ft 264 kts 155°
2026-05-05 22:43 39.94009 3.10552 7976 ft 265 kts 157°
2026-05-05 22:44 39.92259 3.11187 7627 ft 261 kts 182°
2026-05-05 22:44 39.90450 3.11056 7364 ft 261 kts 187°
2026-05-05 22:44 39.88638 3.10880 7092 ft 262 kts 188°
2026-05-05 22:44 39.86818 3.10684 6813 ft 262 kts 188°
2026-05-05 22:45 39.85445 3.10528 6601 ft 260 kts 188°
2026-05-05 22:45 39.83640 3.10316 6314 ft 258 kts 188°
2026-05-05 22:45 39.81852 3.10101 6035 ft 258 kts 188°
2026-05-05 22:45 39.80072 3.09884 5767 ft 255 kts 188°
2026-05-05 22:46 39.78320 3.09669 5507 ft 249 kts 188°
2026-05-05 22:46 39.76637 3.09461 5257 ft 238 kts 188°
2026-05-05 22:46 39.75009 3.09262 5016 ft 233 kts 188°
2026-05-05 22:46 39.73399 3.09061 4782 ft 232 kts 188°
2026-05-05 22:47 39.71826 3.08752 4584 ft 224 kts 204°
2026-05-05 22:47 39.70575 3.07579 4444 ft 228 kts 232°
2026-05-05 22:47 39.69657 3.05854 4317 ft 234 kts 237°
2026-05-05 22:47 39.68795 3.04125 4187 ft 220 kts 238°
2026-05-05 22:48 39.67989 3.02505 4084 ft 209 kts 238°
2026-05-05 22:48 39.67224 3.00946 3980 ft 201 kts 238°
2026-05-05 22:48 39.66501 2.99430 3834 ft 194 kts 239°
2026-05-05 22:48 39.65808 2.97963 3692 ft 188 kts 239°
2026-05-05 22:49 39.65126 2.96517 3486 ft 188 kts 239°
2026-05-05 22:49 39.64446 2.95071 3288 ft 186 kts 239°
2026-05-05 22:49 39.63785 2.93667 3082 ft 183 kts 239°
2026-05-05 22:49 39.63123 2.92260 2826 ft 178 kts 239°
2026-05-05 22:50 39.62486 2.90905 2590 ft 174 kts 239°
2026-05-05 22:50 39.61871 2.89588 2349 ft 171 kts 236°
2026-05-05 22:50 39.61252 2.88280 2137 ft 172 kts 237°
2026-05-05 22:50 39.60617 2.86937 1919 ft 176 kts 237°
2026-05-05 22:51 39.59980 2.85582 1695 ft 175 kts 238°
2026-05-05 22:51 39.59364 2.84276 1513 ft 165 kts 239°
2026-05-05 22:51 39.58775 2.83027 1282 ft 159 kts 239°
2026-05-05 22:51 39.58217 2.81834 1052 ft 151 kts 239°
2026-05-05 22:52 39.57686 2.80686 818 ft 146 kts 238°
2026-05-05 22:52 39.57156 2.79589 653 ft 141 kts 239°
2026-05-05 22:52 39.56664 2.78509 500 ft 139 kts 238°
2026-05-05 22:52 39.56155 2.77424 302 ft 143 kts 237°
2026-05-05 22:53 39.55621 2.76322 105 ft 144 kts 238°
2026-05-05 22:53 39.55120 2.75259 33 ft 128 kts 237°
2026-05-05 22:53 39.54755 2.74497 37 ft 66 kts 238°
2026-05-05 22:53 39.54592 2.74141 39 ft 37 kts 247°
2026-05-05 22:54 39.54551 2.73887 38 ft 22 kts 266°
2026-05-05 22:54 39.54555 2.73761 38 ft 10 kts 287°
2026-05-05 22:54 39.54596 2.73739 38 ft 8 kts 26°
2026-05-05 22:54 39.54634 2.73801 38 ft 10 kts 59°
2026-05-05 22:55 39.54675 2.73892 38 ft 13 kts 59°
2026-05-05 22:55 39.54727 2.74002 37 ft 15 kts 59°
2026-05-05 22:55 39.54767 2.74090 36 ft 11 kts 58°
2026-05-05 22:55 39.54832 2.74119 38 ft 12 kts 334°
2026-05-05 22:56 39.54912 2.74059 37 ft 15 kts 328°
2026-05-05 22:56 39.55007 2.73984 38 ft 17 kts 328°
2026-05-05 22:56 39.55118 2.73896 38 ft 20 kts 327°
2026-05-05 22:56 39.55202 2.73829 37 ft 8 kts 328°
2026-05-05 22:57 39.55256 2.73787 38 ft 11 kts 328°
2026-05-05 22:57 39.55327 2.73731 36 ft 13 kts 328°
2026-05-05 22:57 39.55416 2.73660 37 ft 17 kts 328°
2026-05-05 22:57 39.55496 2.73590 34 ft 9 kts 297°
2026-05-05 22:58 39.55474 2.73510 33 ft 11 kts 239°
2026-05-05 22:58 39.55427 2.73413 33 ft 14 kts 238°
2026-05-05 22:58 39.55372 2.73295 33 ft 17 kts 238°
2026-05-05 22:58 39.55306 2.73156 33 ft 19 kts 238°
2026-05-05 22:59 39.55249 2.73035 33 ft 15 kts 239°
2026-05-05 22:59 39.55191 2.72912 33 ft 17 kts 238°
2026-05-05 22:59 39.55129 2.72779 33 ft 15 kts 239°
2026-05-05 22:59 39.55084 2.72693 33 ft 6 kts 210°
2026-05-05 23:00 39.55037 2.72723 35 ft 3 kts 139°
2026-05-05 23:00 39.55023 2.72740 36 ft 2 kts 138°
2026-05-05 23:00 39.55021 2.72742 36 ft 0 kts 138°